RH
31 29 29 30 32 33 29 24 29 25 19 31 33 38 43 32 28 34 36 38 46 43 38 40 39 44 51 49 43 44 45 47 53 48 53 48 33 30 27 24 23 22 20 23 24 37 48 52 67 70 70 71 70 71 72 72 72 74 74 75 75 74 73 72 75 77 76 79 79 78 77 75 76 74 76 80 78 79 81 83 83 84 86 85 86 86 87 87 88 89 90 89 89 92 91 91 94
30 28 26 29 28 29 29 21 27 23 18 30 31 36 40 29 32 40 40 45 49 43 36 35 37 40 43 44 37 44 52 47 47 44 43 37 30 29 24 22 20 18 18 19 22 38 43 43 64 68 67 68 66 68 68 70 69 71 73 75 76 75 75 71 73 75 75 79 77 78 77 74 78 77 78 79 78 79 80 83 81 82 86 86 85 86 86 87 88 89 89 88 89 89 89 89 90
29 28 26 27 25 24 24 19 24 23 19 32 38 36 30 31 44 48 47 48 45 39 36 34 39 43 42 49 45 44 52 45 38 38 35 32 32 27 23 21 18 18 17 17 20 37 37 34 59 66 62 63 62 64 65 67 67 69 71 73 75 75 76 72 73 74 74 79 78 78 77 76 80 80 81 80 78 79 79 82 82 82 85 87 85 86 87 87 90 90 89 89 90 88 87 87 86
24 26 26 24 26 21 22 23 21 21 23 33 43 34 25 40 52 51 49 46 41 38 40 39 41 39 34 43 44 39 43 37 28 30 32 31 30 25 22 20 19 18 16 16 18 32 27 22 53 63 58 59 58 61 61 65 66 67 69 70 72 73 76 74 73 71 72 77 77 78 78 79 81 80 82 80 78 80 81 81 83 82 84 86 86 87 87 88 90 89 88 89 90 88 86 87 87
20 24 23 20 27 21 17 19 15 23 32 31 36 31 28 46 54 50 46 44 41 42 47 44 43 41 33 31 34 37 38 35 26 24 29 27 27 24 19 19 20 18 16 17 17 27 18 12 45 59 54 55 55 58 58 61 64 64 66 66 66 68 72 75 75 72 73 76 77 79 79 80 82 80 82 81 78 82 84 83 83 83 83 84 84 87 88 89 91 89 90 90 88 88 88 89 89
19 20 16 15 22 20 19 16 14 26 30 26 28 29 33 45 50 48 43 46 45 44 48 43 44 43 33 25 26 34 33 34 29 23 24 22 25 21 16 19 19 16 17 17 18 22 13 7 35 54 51 51 53 54 55 57 60 62 63 64 64 64 66 72 76 77 77 78 78 79 79 81 82 79 81 81 79 82 84 83 82 82 82 83 82 85 87 88 90 90 91 89 87 89 90 90 90
19 21 16 15 16 18 24 18 18 23 22 23 25 26 34 42 43 45 44 46 46 43 46 42 41 38 31 26 24 29 26 27 27 22 22 21 24 21 18 20 17 15 16 16 19 19 12 7 25 47 48 46 49 50 52 53 57 59 59 61 61 61 62 67 71 74 78 77 76 76 78 82 82 79 78 79 80 81 83 81 80 82 83 83 82 83 85 84 88 90 90 89 89 90 90 90 90
19 22 18 19 19 17 20 17 21 24 22 26 26 25 36 42 37 41 39 36 41 39 43 44 38 35 35 29 25 26 22 23 24 22 21 20 22 21 20 20 17 16 16 17 19 19 16 9 15 36 42 41 44 47 50 49 52 54 55 57 57 57 58 62 64 66 71 72 73 75 77 80 80 78 74 76 79 80 83 79 77 80 83 84 82 82 83 83 87 89 89 90 91 92 92 89 91
15 17 17 19 20 17 18 17 22 23 22 28 33 32 37 41 34 36 33 28 35 31 32 39 35 34 37 33 28 25 21 22 23 22 21 20 21 21 20 19 17 16 16 17 17 20 20 13 11 22 29 30 31 38 45 43 44 47 51 53 53 54 53 57 59 60 64 66 70 72 74 75 74 75 71 73 77 79 83 78 75 77 80 83 83 84 84 84 86 86 88 89 91 91 92 92 93
15 14 16 19 20 20 19 17 21 20 19 24 31 33 35 37 31 34 33 25 27 24 24 29 30 30 32 31 30 26 20 22 23 21 20 19 21 22 20 17 17 17 16 17 16 20 21 16 13 15 17 18 19 23 30 31 31 34 39 43 46 47 47 52 56 56 58 60 64 67 68 68 68 72 71 73 74 77 82 77 74 74 76 81 84 85 84 86 85 85 85 85 90 88 90 93 89
21 16 15 21 23 20 18 19 23 20 19 21 26 28 30 31 28 31 34 27 22 22 24 24 26 27 24 23 27 26 20 21 22 21 20 19 21 21 19 17 17 17 17 17 17 17 18 18 19 17 15 15 16 17 19 22 23 23 27 30 33 34 35 43 50 52 55 57 58 60 61 62 65 68 70 73 72 74 78 75 73 73 74 79 83 84 82 87 85 84 85 84 89 89 91 90 77
26 22 17 22 22 15 14 18 21 21 22 22 25 26 25 27 27 28 31 28 22 21 25 23 20 20 21 22 25 25 21 21 21 21 19 19 21 20 19 18 18 17 17 19 18 17 18 20 22 22 19 18 19 20 22 23 24 22 22 24 24 25 26 31 38 43 50 52 55 57 57 60 63 66 69 70 69 71 73 71 70 70 73 77 80 83 81 84 83 81 85 86 86 90 92 80 59
26 23 19 22 20 15 14 18 20 22 23 20 22 24 23 25 26 24 24 25 22 19 22 21 16 15 17 19 24 23 21 22 19 20 19 19 21 20 19 18 18 18 17 19 19 18 19 20 23 24 24 22 22 25 27 28 28 25 24 22 22 24 24 26 29 35 41 42 47 49 47 56 62 65 67 65 64 66 67 66 64 65 72 78 80 81 80 81 81 78 83 86 84 88 87 72 49
26 21 20 22 18 15 14 20 21 20 21 18 19 21 21 22 21 19 19 20 20 19 20 18 15 16 14 15 23 22 20 21 19 20 19 19 20 20 20 18 18 18 18 19 19 19 19 21 21 24 26 26 28 30 32 33 30 27 25 22 23 26 25 27 28 32 37 37 40 38 36 50 59 58 57 55 56 58 62 60 58 65 73 79 81 81 79 78 78 77 81 81 79 84 80 67 52
25 21 21 22 16 15 17 20 19 18 20 19 20 20 18 18 19 18 17 17 19 18 18 18 15 15 14 13 19 18 17 20 20 19 19 19 19 19 20 19 19 19 20 20 20 21 22 22 21 22 25 27 30 32 33 35 34 30 26 24 27 29 29 31 29 32 36 35 37 33 29 40 47 46 46 47 48 52 57 55 57 68 72 74 78 80 79 74 75 77 77 76 75 77 71 60 54
20 22 25 24 18 18 19 17 17 19 20 20 20 18 17 19 20 19 17 17 19 18 17 18 16 14 14 14 16 15 16 19 19 19 19 19 18 19 20 20 21 20 21 22 21 21 22 22 21 20 21 25 28 30 31 33 34 31 27 30 35 37 36 35 32 35 36 33 34 30 25 31 35 33 36 41 45 48 50 52 58 65 66 68 71 75 76 72 73 77 74 77 77 73 71 62 62
17 23 27 25 20 19 18 15 16 20 21 21 18 17 18 19 20 19 18 18 16 17 17 17 15 15 15 14 16 15 16 17 17 18 19 19 19 20 21 22 22 21 21 22 23 22 22 21 20 20 20 23 26 28 29 30 31 29 30 37 43 43 40 37 34 35 35 31 32 29 25 28 28 24 29 39 44 44 46 52 57 58 59 62 66 69 71 68 69 73 71 73 74 73 74 65 62
18 24 25 23 22 20 16 12 13 15 17 20 17 17 17 17 20 18 16 17 15 15 16 15 15 16 15 14 15 16 16 17 17 18 19 20 20 20 21 22 22 22 21 21 22 22 23 21 20 21 20 22 24 27 28 28 29 30 35 39 40 39 37 37 35 34 33 31 31 28 26 28 25 22 28 39 42 42 45 49 50 52 56 57 58 61 63 61 62 65 63 62 64 64 63 53 51
15 19 21 22 21 18 13 10 12 11 13 16 16 15 14 15 18 16 15 15 16 17 16 15 15 15 15 15 15 16 16 17 17 17 18 19 20 20 20 21 22 22 22 21 21 22 22 21 21 20 20 21 23 25 27 28 30 33 36 37 36 35 34 34 33 33 32 31 31 29 27 27 25 25 29 37 41 42 43 44 47 49 50 49 50 53 54 54 54 55 53 53 53 50 48 45 47
13 15 22 21 15 13 11 10 12 11 12 12 14 15 14 14 14 14 15 15 15 17 17 17 17 16 15 15 15 16 16 16 16 16 17 18 18 18 17 17 19 20 21 21 21 21 21 21 21 20 20 21 22 24 26 27 30 32 34 34 33 33 32 31 31 32 32 30 32 30 26 27 28 27 27 31 36 38 39 41 44 44 42 41 43 46 45 45 46 45 44 45 44 40 40 42 45
14 15 19 15 10 12 13 11 12 12 11 11 14 15 13 13 13 14 14 16 17 14 15 16 16 14 13 14 15 15 15 16 16 15 16 16 16 16 16 15 15 17 18 20 21 21 20 20 20 21 21 22 23 25 26 27 28 31 33 31 30 31 31 29 29 31 30 30 32 29 25 28 30 28 26 27 31 36 39 40 41 41 40 37 38 41 41 40 40 39 39 39 38 38 38 39 43
15 15 13 11 10 12 13 12 14 13 11 11 14 14 13 14 14 15 14 18 17 14 17 17 14 14 13 12 13 15 15 15 16 16 16 15 15 15 15 15 14 14 15 18 20 20 20 19 19 21 22 22 24 25 26 27 28 30 30 28 30 31 30 28 28 29 29 30 30 27 26 29 29 28 26 26 30 36 40 40 40 41 40 39 39 41 40 40 39 38 38 37 36 37 38 37 39
16 14 9 10 11 12 13 13 15 15 12 12 15 15 14 15 15 14 14 16 14 13 16 17 17 18 15 12 12 14 16 16 17 17 17 17 16 15 15 14 14 14 14 15 17 18 19 19 20 21 21 21 23 25 27 27 27 28 28 29 31 30 28 27 27 28 28 29 28 27 28 29 29 29 27 25 29 35 39 39 40 40 41 43 41 41 41 40 39 38 37 37 36 36 36 37 37
18 16 10 11 12 13 14 15 15 14 14 13 14 15 14 15 15 13 13 15 13 13 14 15 20 20 16 14 13 15 16 15 16 16 17 18 18 17 16 15 15 14 14 15 16 17 19 20 21 20 20 21 23 25 28 27 27 28 29 30 30 29 28 27 27 27 29 28 26 28 30 29 29 29 26 26 29 31 36 37 39 41 42 45 43 42 42 41 40 38 37 36 36 36 36 37 36
20 16 10 11 12 13 14 15 15 14 14 14 14 15 14 14 14 14 14 13 13 13 12 13 18 19 17 16 15 16 16 15 15 15 16 17 17 18 18 17 16 15 14 15 16 17 18 20 21 20 19 20 23 26 28 29 28 29 29 29 29 29 29 28 28 28 29 28 27 28 29 29 30 28 26 28 28 28 32 36 39 41 43 44 43 42 43 42 40 38 38 37 37 37 37 38 38
21 14 11 11 12 12 14 14 13 15 13 13 16 16 14 13 14 16 14 13 12 11 12 11 13 16 17 16 16 15 15 15 15 15 15 16 17 17 17 17 17 17 16 16 16 17 18 19 20 21 21 21 23 25 27 28 29 29 29 28 28 29 30 29 28 29 28 28 27 28 28 30 30 27 27 28 27 26 30 35 40 42 43 43 41 41 42 42 41 40 39 39 40 39 39 40 40
17 14 13 11 12 12 13 13 13 14 13 13 16 16 14 13 17 18 14 13 13 12 13 12 12 15 16 16 16 15 15 14 14 14 15 16 17 17 17 17 17 17 17 17 17 17 18 19 20 20 21 21 22 24 25 26 27 28 28 27 28 29 30 30 29 29 29 28 28 28 29 29 29 28 29 28 26 27 31 36 40 42 44 44 43 43 44 43 42 42 43 42 41 41 41 42 41
12 14 16 14 11 12 13 12 13 14 14 14 14 17 15 15 21 20 15 14 14 13 13 13 14 15 15 15 15 15 15 14 13 14 14 15 16 17 18 18 18 18 18 18 17 18 18 19 20 20 20 20 21 22 23 24 25 27 27 27 28 29 29 30 30 29 29 28 28 28 29 29 30 30 30 28 27 29 32 35 39 42 44 46 45 45 45 46 45 45 44 43 42 42 43 42 41
11 14 21 21 12 13 14 11 14 14 15 15 15 22 20 19 23 18 14 14 14 14 13 13 14 14 15 15 14 15 15 14 14 14 14 14 14 15 16 17 18 19 18 18 18 19 19 19 20 20 20 20 20 22 22 23 24 26 26 26 26 28 29 29 29 30 29 29 28 28 29 30 30 31 30 29 28 29 31 35 38 41 43 45 46 46 46 47 47 45 44 44 43 42 42 41 40
16 17 22 25 21 19 14 11 15 14 16 15 19 30 24 18 19 14 14 15 13 14 13 13 13 13 15 15 15 15 14 15 15 15 14 14 14 14 15 15 16 17 17 18 18 19 19 19 20 20 20 20 19 21 23 23 24 26 26 27 27 27 28 29 29 30 30 29 29 29 29 30 30 30 30 29 28 28 30 34 38 39 40 43 45 45 46 48 46 44 44 44 43 41 41 41 41
22 28 29 30 30 25 15 14 15 15 18 14 21 35 27 16 16 14 14 14 13 14 13 13 13 13 14 15 15 15 14 14 14 14 14 14 15 15 15 15 15 16 16 16 17 18 19 19 20 21 21 21 20 21 23 23 24 26 26 27 28 29 29 29 30 30 30 30 29 29 29 29 29 29 29 29 29 27 28 33 37 39 39 42 45 46 47 47 46 44 44 43 43 42 42 43 42
23 33 34 29 27 25 19 17 16 17 18 14 24 38 29 17 15 14 14 13 13 14 14 14 14 13 14 15 14 14 14 13 13 13 13 14 14 15 15 16 16 16 16 17 17 17 18 19 20 21 21 22 23 23 23 24 25 25 25 26 27 29 30 29 30 31 31 30 30 30 29 28 28 29 29 29 29 27 28 31 36 38 38 40 43 45 47 48 46 45 45 45 45 44 45 45 44
25 29 29 25 24 25 24 21 19 19 20 17 23 33 29 18 14 13 14 14 14 14 15 14 14 14 14 14 14 14 15 14 14 13 12 13 13 14 15 15 17 17 18 18 18 19 19 19 19 20 21 22 24 26 26 25 26 26 26 25 25 27 30 30 31 32 31 31 30 30 30 29 28 29 29 29 29 28 27 30 34 37 38 40 42 44 47 47 47 46 45 46 45 45 46 47 46
29 29 28 25 23 25 27 27 24 21 26 29 26 29 29 21 17 16 14 14 15 15 15 15 15 15 16 16 15 14 15 18 18 15 14 14 14 15 15 16 18 18 20 20 20 21 20 20 20 20 20 21 23 25 27 28 27 27 28 27 25 26 28 31 32 33 33 31 31 30 30 29 29 29 30 30 30 29 29 30 34 38 40 41 43 45 46 48 48 46 46 46 45 45 46 46 46
34 34 33 31 29 27 26 31 32 26 31 35 29 29 27 21 19 17 15 14 15 15 15 16 15 15 17 17 16 15 17 21 21 16 15 16 16 17 18 19 20 21 22 22 22 22 22 22 22 22 23 22 23 24 27 29 29 28 29 29 28 27 27 29 31 32 33 32 31 31 31 30 30 31 31 32 32 31 31 33 37 39 40 42 43 46 47 48 47 46 46 47 46 46 47 47 48
31 34 36 38 38 31 23 32 38 30 33 35 30 30 25 20 20 16 15 14 14 16 16 17 16 15 16 17 19 18 19 22 20 17 18 20 20 19 20 20 21 22 22 22 22 22 23 23 24 25 25 25 24 24 25 28 30 29 30 30 30 30 28 28 29 30 32 32 31 31 31 31 31 31 32 32 32 32 32 36 40 41 42 43 46 48 49 47 46 46 45 46 47 47 48 48 49
27 33 38 41 41 34 23 30 39 33 35 35 29 29 25 21 20 17 16 15 15 17 17 20 18 16 17 19 22 20 21 23 18 17 21 22 22 21 21 22 22 22 23 23 22 23 24 24 26 26 26 26 25 25 24 26 29 30 30 31 31 31 30 28 28 29 30 31 32 32 32 31 31 32 33 33 32 32 33 37 41 42 43 44 46 48 48 47 47 46 45 45 46 47 48 49 49
31 35 37 37 37 32 25 31 36 32 36 36 27 28 26 22 21 18 16 16 16 15 16 18 17 18 19 20 24 22 22 23 19 19 20 21 22 22 22 23 23 23 23 24 24 25 26 26 28 28 28 28 28 28 26 26 27 29 30 31 32 33 32 30 29 28 29 30 31 32 32 32 32 33 33 33 32 31 33 37 40 41 42 43 45 47 48 49 47 47 48 48 48 49 49 49 48
35 36 37 38 35 30 32 38 35 30 37 36 29 30 29 24 23 18 16 16 18 20 20 20 17 16 18 20 23 23 23 23 21 20 19 19 20 21 22 24 24 24 24 25 26 28 29 29 30 30 31 30 30 30 30 29 28 29 30 30 30 32 31 30 29 27 27 29 31 32 33 33 33 34 34 34 33 32 32 36 38 40 42 43 44 47 49 49 48 48 49 50 50 51 51 49 47
38 37 37 38 34 32 37 43 38 31 34 35 32 37 36 28 24 18 17 20 21 24 25 26 26 22 20 22 23 22 24 26 24 22 21 20 20 22 23 25 25 25 25 27 29 30 31 32 33 33 34 34 33 32 32 32 31 30 31 31 31 31 31 31 29 27 25 25 28 30 32 32 33 34 35 35 34 32 33 35 38 40 42 44 44 46 48 48 48 48 49 50 50 52 53 51 48
36 38 38 35 33 34 35 37 37 32 36 42 39 39 37 29 24 19 19 21 20 22 22 23 27 27 26 26 25 25 27 28 26 25 24 22 22 24 24 26 26 25 27 30 31 32 32 33 34 34 36 35 35 35 35 34 34 33 32 33 34 33 32 33 33 31 29 26 26 27 29 30 32 34 34 35 34 34 34 35 38 40 42 43 44 45 46 46 47 47 48 49 49 52 54 51 48
32 38 41 34 30 35 36 37 39 36 38 46 42 39 37 25 19 22 22 21 20 22 23 22 24 26 27 26 25 26 27 28 28 26 26 25 24 25 26 26 27 27 30 32 32 33 34 34 34 35 36 37 36 36 36 37 36 35 35 35 35 35 35 35 34 33 32 30 28 27 27 28 31 32 33 33 33 34 36 37 37 39 41 43 44 45 45 46 46 46 47 48 49 51 51 50 49
32 40 43 35 31 36 39 41 45 42 37 39 38 39 42 31 21 23 24 22 23 23 23 23 21 23 27 26 25 26 26 28 30 28 27 27 27 26 27 27 27 29 32 33 34 35 35 35 35 36 37 37 36 36 37 37 38 38 37 37 36 36 36 36 35 34 32 31 29 28 27 27 29 30 32 33 34 34 36 38 38 38 40 41 44 45 46 45 45 46 46 46 47 48 48 50 51
38 44 42 36 35 39 42 43 46 43 35 36 37 36 42 40 28 24 25 24 26 25 24 25 23 24 28 28 28 29 29 30 32 33 31 29 28 27 28 29 29 31 33 35 37 37 37 36 37 37 38 37 36 37 37 37 37 38 39 40 39 39 39 38 38 36 35 33 31 29 27 26 28 29 31 32 34 35 36 39 39 40 41 42 44 47 47 46 45 46 46 46 46 47 47 50 52
41 45 40 34 36 40 42 44 43 39 38 42 42 39 43 41 28 22 24 25 27 29 29 30 29 29 30 29 30 30 31 32 32 32 32 29 28 28 29 30 30 34 36 38 39 39 39 38 39 39 39 40 40 40 40 38 37 38 39 41 41 41 41 41 41 39 38 36 34 32 28 25 26 28 30 32 34 36 36 39 40 41 43 44 47 48 48 47 46 47 47 47 47 47 48 49 50
42 44 44 43 45 45 44 46 40 36 45 49 42 38 42 39 27 22 23 27 33 35 33 33 32 31 32 32 32 33 33 35 33 31 31 29 29 29 29 31 33 37 39 40 40 39 40 40 40 41 40 40 41 42 42 40 39 38 38 39 40 41 41 41 42 40 40 39 36 34 30 26 24 26 28 31 34 35 36 38 41 42 43 45 48 50 50 49 48 49 48 47 47 48 49 49 49
40 41 45 48 49 45 42 39 34 40 52 47 34 30 34 37 33 30 32 35 39 38 33 32 33 32 34 34 35 35 34 34 35 34 32 29 29 29 30 33 37 40 41 41 41 40 40 40 41 41 41 40 41 41 42 41 41 40 39 39 38 39 40 40 41 40 40 40 38 36 34 29 25 24 25 27 30 33 36 39 41 42 43 45 47 49 49 49 48 50 49 47 46 47 50 50 51
37 39 40 42 43 38 37 34 35 53 57 39 29 30 34 38 37 38 41 39 40 42 37 34 34 34 35 36 35 35 34 35 37 39 37 34 33 32 33 36 39 41 42 41 41 40 40 41 41 41 40 40 41 42 42 42 42 42 41 41 40 39 38 38 39 40 40 40 39 38 36 33 29 26 24 25 27 30 34 38 41 43 45 45 46 45 46 47 49 50 50 48 47 47 49 51 53
39 39 36 43 45 37 40 41 42 53 48 32 29 34 37 35 31 35 38 34 36 39 37 35 34 33 33 34 35 35 35 36 38 40 42 40 38 37 38 39 41 42 42 40 40 40 40 41 41 41 40 40 40 41 41 42 43 43 41 39 40 40 39 38 38 38 39 40 40 39 37 35 33 30 27 25 25 27 30 34 38 41 43 43 43 42 42 45 48 49 49 49 49 48 50 52 55
37 35 34 45 47 43 47 44 41 45 39 31 29 34 40 35 29 32 31 30 34 33 34 36 33 32 33 33 34 35 35 36 40 41 42 42 41 39 39 39 41 42 41 39 39 39 40 41 41 41 41 41 41 41 41 41 42 41 39 37 39 40 40 39 38 38 39 39 39 39 38 37 35 33 31 27 25 25 28 31 33 37 39 40 41 40 40 43 46 49 48 48 49 50 51 53 56
34 29 30 40 42 45 52 47 46 52 44 36 34 37 42 39 34 32 30 30 32 32 34 35 33 33 33 33 34 36 37 39 42 43 42 41 39 38 38 39 42 43 41 40 40 40 41 42 42 42 43 43 43 43 42 42 43 41 40 40 41 42 42 41 40 39 39 39 38 38 37 36 36 35 33 31 27 24 25 29 33 35 37 38 39 38 40 42 45 47 46 46 48 50 52 53 56
31 25 32 42 39 39 46 46 43 48 50 46 44 40 34 32 33 31 31 33 30 31 33 32 32 32 33 36 36 37 40 42 44 45 44 41 38 38 40 41 43 42 40 41 40 41 41 41 42 42 44 45 45 45 46 45 45 44 43 44 44 45 45 44 41 39 39 39 39 38 37 36 35 34 34 33 30 25 24 27 32 35 36 37 37 37 38 42 46 47 46 45 45 48 51 53 56
31 27 36 40 34 32 43 50 40 42 55 50 40 38 30 30 37 33 31 34 32 32 33 30 31 30 31 36 37 39 42 43 45 46 44 42 41 42 43 43 43 40 40 41 39 38 39 38 40 42 43 45 47 48 49 49 48 47 47 47 46 46 46 46 44 41 39 39 40 39 37 36 35 34 33 33 32 29 24 24 28 33 35 35 35 36 38 41 46 48 46 45 45 46 50 53 55
34 33 40 38 36 33 37 51 51 52 61 47 33 38 34 34 43 38 32 34 34 33 31 29 29 29 30 33 36 40 42 44 45 44 43 44 45 45 44 42 42 39 38 39 37 37 37 37 40 42 44 47 49 50 51 52 51 50 50 49 49 48 47 47 45 43 42 41 41 40 38 36 35 35 34 34 33 31 26 24 25 29 32 34 34 35 38 42 46 49 48 47 47 48 50 51 52
38 40 42 38 45 46 39 48 58 62 65 51 38 40 38 38 42 38 33 34 35 33 32 31 31 31 33 36 39 42 44 46 44 44 48 50 47 45 44 42 40 38 38 38 38 38 38 40 43 46 48 48 49 50 49 50 51 52 52 51 50 49 48 48 46 45 44 43 43 43 42 39 36 36 36 36 35 32 28 26 26 28 30 32 34 35 38 42 46 49 50 50 50 50 50 50 50
39 39 37 33 39 45 45 47 51 58 63 58 50 48 43 37 34 32 32 32 34 35 34 34 34 34 35 39 43 46 48 46 44 49 56 53 47 43 41 40 38 38 39 39 40 42 43 46 47 47 48 49 49 48 48 48 49 50 52 52 52 51 49 49 48 45 45 44 44 44 44 42 38 37 37 37 37 34 30 28 28 29 30 31 33 36 39 42 45 48 51 52 52 53 52 51 50
42 42 43 41 39 38 45 50 45 48 57 60 60 58 46 33 28 29 29 30 34 37 37 38 38 37 38 41 43 47 48 45 48 58 58 50 45 43 42 42 42 41 41 41 44 48 51 52 50 48 48 49 50 49 49 50 49 50 51 52 53 53 51 50 49 46 45 46 46 45 44 42 40 38 38 38 38 37 33 31 30 31 31 33 34 37 40 43 46 48 50 52 53 54 55 53 52
38 39 40 43 43 41 52 59 50 47 56 60 64 65 50 32 25 26 27 30 36 39 39 41 40 39 41 42 43 47 44 45 56 62 54 48 49 49 49 48 45 43 43 47 53 55 56 54 51 49 48 48 49 48 46 47 51 54 54 54 54 54 53 50 47 45 44 46 47 46 44 42 40 39 40 39 39 38 36 34 34 34 34 35 37 38 41 45 48 49 51 53 54 55 57 56 55
Wind_Speed
3 5 7 6 6 9 8 3 2 2 2 0 3 2 3 4 5 7 6 5 3 3 3 3 3 2 1 2 2 4 3 3 2 1 1 5 11 11 9 9 8 7 6 5 4 4 4 8 10 10 11 12 13 14 14 15 16 16 17 17 17 17 17 17 17 18 18 18 18 18 19 19 20 20 19 20 20 20 20 20 20 20 21 20 20 20 19 19 19 20 20 20 21 21 20 19 19
3 4 7 8 9 8 2 1 2 2 3 2 3 3 5 4 4 6 6 5 4 4 3 3 3 2 1 1 1 2 3 3 3 3 4 12 13 10 10 8 8 7 6 5 5 4 3 8 9 9 11 12 13 13 14 15 16 16 16 17 17 17 17 17 17 18 18 18 18 18 19 20 20 20 20 20 20 20 20 20 20 20 20 20 20 20 19 19 20 20 20 20 20 20 20 19 19
4 4 8 9 8 6 1 0 2 3 2 3 3 4 5 4 5 8 8 8 7 5 3 3 2 1 1 2 1 0 1 2 7 6 6 14 12 10 11 9 9 7 6 6 5 3 3 8 8 9 10 11 12 12 13 14 15 16 16 17 17 17 17 17 17 17 18 18 18 18 19 20 20 20 20 20 20 19 20 20 20 20 20 20 20 19 19 19 20 21 21 21 20 19 19 19 19
5 4 6 8 4 3 2 2 3 4 1 2 3 3 4 5 9 9 8 7 6 5 3 2 1 1 2 1 1 2 2 4 8 8 7 12 12 14 13 10 11 7 6 6 6 2 5 7 7 8 9 9 10 11 12 13 14 15 16 16 17 16 16 16 16 16 17 17 17 18 18 19 20 20 20 20 20 19 20 20 21 21 20 20 20 20 19 20 20 21 21 21 21 20 19 19 19
9 5 5 7 2 1 2 1 2 2 3 2 3 4 4 9 10 9 7 6 5 3 2 1 0 1 2 1 1 1 3 4 6 8 10 11 13 16 13 12 11 8 7 6 7 2 5 6 6 6 7 8 9 10 11 12 13 14 15 16 16 16 16 15 15 15 15 16 16 17 17 18 19 19 19 19 19 19 20 20 21 21 20 20 20 20 20 20 21 21 21 21 21 20 20 19 18
11 7 5 5 2 0 1 2 0 4 2 3 3 4 6 10 9 9 8 5 4 3 3 0 1 1 1 1 2 2 4 5 7 8 13 14 15 15 12 12 10 8 7 6 7 3 5 6 5 5 5 6 7 8 9 10 12 13 14 15 16 16 16 15 15 15 14 15 15 16 16 16 17 18 18 18 18 18 19 20 20 20 20 20 20 20 20 21 21 21 21 20 20 20 20 19 18
9 5 2 2 1 1 2 1 3 4 2 4 4 5 7 9 8 9 8 5 3 3 2 1 2 1 0 2 2 4 6 7 9 9 14 17 16 14 12 12 10 9 8 6 6 3 4 7 5 5 4 5 5 6 7 8 9 11 12 13 15 16 16 15 15 14 14 15 15 15 15 15 16 16 17 17 17 17 17 18 19 19 19 20 20 20 20 21 21 21 21 20 20 20 19 19 18
5 3 0 1 2 2 2 1 4 3 2 4 5 5 8 9 8 8 7 4 3 4 4 3 2 1 0 0 0 5 8 8 12 13 16 18 16 14 13 12 10 10 8 7 6 3 2 5 5 5 4 4 4 4 5 6 7 9 10 11 13 14 15 15 15 15 14 14 15 15 15 15 15 15 16 15 16 16 16 17 18 18 19 19 19 19 20 20 21 21 21 20 20 20 19 19 18
6 2 0 2 2 2 1 3 3 3 4 4 5 7 9 7 6 7 7 5 4 4 6 6 4 2 1 1 0 5 8 11 15 15 16 17 16 15 13 12 10 10 8 6 5 3 1 2 4 4 3 3 3 3 3 4 6 7 9 10 11 12 14 14 14 15 14 14 14 15 15 15 15 15 15 14 14 14 15 16 17 17 18 18 18 19 19 19 20 20 20 20 20 20 19 19 18
4 2 1 2 2 3 3 4 3 3 5 5 5 7 8 6 4 5 6 5 5 3 5 7 5 4 2 3 1 4 12 15 16 15 15 16 15 14 13 12 10 10 9 7 6 6 6 4 1 1 2 1 2 2 3 4 6 7 8 10 11 12 14 14 14 15 14 14 14 14 15 15 15 14 14 13 13 13 13 14 15 16 17 18 18 18 18 19 19 19 19 19 19 19 19 18 18
2 2 1 1 3 3 0 4 4 4 6 5 5 7 6 6 5 4 4 4 5 4 5 6 4 6 5 4 0 5 17 19 17 18 16 16 15 14 12 12 11 10 9 9 8 8 9 9 5 3 1 1 2 3 4 5 6 8 10 11 13 14 15 15 14 15 14 14 14 14 14 15 14 14 13 11 12 12 12 13 14 16 16 17 17 17 18 18 18 19 19 18 18 18 18 18 19
3 2 0 2 4 2 3 2 4 5 5 4 5 6 5 6 6 5 5 3 4 5 6 7 2 2 5 4 1 9 19 18 17 18 17 16 16 14 12 12 11 11 10 10 9 8 8 9 8 7 5 4 4 4 5 7 7 9 10 12 14 15 16 16 16 16 15 15 15 14 15 15 14 13 12 10 11 11 11 13 14 16 16 16 17 17 17 17 17 18 18 18 18 18 18 19 20
2 3 2 3 2 3 2 1 4 5 4 4 6 7 5 6 6 5 5 5 5 4 5 9 3 1 4 1 4 9 14 17 17 17 18 17 16 14 13 11 11 11 11 11 10 9 9 9 8 10 9 7 7 6 7 8 9 11 11 14 15 15 17 17 17 17 17 17 16 17 17 15 13 12 10 9 11 11 11 13 15 17 16 16 16 16 16 15 16 16 16 17 17 17 17 19 20
2 3 3 2 1 1 1 1 3 2 2 4 5 7 6 5 5 4 4 5 4 2 1 6 4 1 5 1 4 5 10 18 17 17 18 16 14 14 13 12 11 12 12 12 12 11 10 10 9 10 11 10 8 8 8 8 10 12 13 15 15 15 17 17 18 18 17 18 17 19 20 16 13 11 10 10 12 11 11 13 16 17 15 15 16 16 15 14 15 15 15 15 16 17 17 19 19
3 3 2 3 1 0 2 1 2 1 2 5 5 6 6 2 1 2 2 3 2 2 3 3 4 2 2 1 2 3 13 20 18 18 17 15 13 13 13 12 12 12 13 13 13 12 12 12 11 11 12 11 8 7 8 8 10 12 13 15 15 15 17 17 18 18 17 17 17 20 21 16 12 10 10 12 12 11 11 14 17 16 15 16 16 15 14 14 15 14 13 15 15 16 17 17 16
2 3 2 3 2 2 1 1 2 1 2 5 4 5 6 4 2 1 1 2 1 2 2 2 5 3 4 2 4 9 18 20 17 17 16 15 13 12 12 12 13 13 14 15 15 15 13 13 13 12 12 11 9 8 8 8 10 13 14 13 13 14 15 15 17 16 15 17 16 20 22 16 11 12 13 13 12 11 13 15 16 15 15 17 16 15 14 14 15 13 13 13 13 15 16 15 14
1 1 2 3 1 3 3 3 2 0 3 4 5 5 5 5 2 1 2 2 2 3 4 4 5 5 5 4 11 13 18 19 18 17 15 15 13 12 13 13 14 14 15 16 17 16 15 15 15 14 13 12 11 11 11 10 11 13 13 9 9 11 12 13 15 14 14 16 16 19 21 15 13 17 16 13 12 14 15 16 15 15 16 16 16 14 13 15 15 12 13 13 13 13 12 13 13
1 2 2 3 3 3 4 5 4 2 3 4 5 5 5 3 5 3 2 4 5 5 6 6 6 7 5 10 15 15 17 18 18 17 16 15 14 14 14 15 16 16 16 17 17 17 17 17 17 16 15 14 13 13 12 11 12 12 10 7 8 10 10 11 13 13 13 15 16 19 19 15 17 19 16 13 14 16 15 15 15 16 16 15 14 13 13 15 14 12 13 13 12 11 10 12 14
1 2 2 2 4 3 4 6 5 4 4 4 4 4 4 1 4 4 2 5 6 7 7 6 7 7 7 12 16 16 17 18 18 18 17 16 16 15 15 16 17 18 17 17 18 18 18 18 17 17 16 15 13 13 12 11 11 9 8 8 9 10 9 10 12 12 13 14 15 17 17 17 18 18 16 14 14 15 14 14 15 15 15 14 13 12 14 15 13 12 13 13 12 11 11 13 14
1 1 2 3 2 3 6 7 6 6 4 3 4 2 2 1 3 3 3 6 5 7 7 7 8 9 10 12 17 17 18 19 18 19 17 17 17 16 15 15 17 18 18 18 17 17 18 19 18 17 17 16 15 16 15 13 12 10 10 10 10 11 10 10 12 12 12 13 14 15 17 17 17 17 16 14 14 15 15 15 14 14 14 14 14 14 15 13 12 12 13 13 12 11 12 15 14
1 1 2 3 2 2 6 6 6 5 5 2 4 2 2 1 2 3 3 6 6 6 4 5 7 7 8 9 17 20 17 18 18 18 18 18 18 17 16 16 16 15 16 17 17 16 16 17 18 18 17 17 17 18 18 15 13 12 13 13 12 12 11 11 12 12 12 13 12 15 18 16 15 16 16 15 15 15 15 15 14 13 14 15 15 15 15 13 13 14 13 13 13 13 13 14 15
1 2 3 4 4 2 4 4 4 4 3 2 2 1 2 1 1 4 6 6 6 2 2 1 3 2 2 1 9 17 16 15 16 17 17 18 18 18 17 16 15 14 13 14 16 16 15 16 17 17 16 17 19 19 18 15 14 15 16 14 12 13 13 13 13 13 13 12 13 17 17 14 15 15 15 15 15 14 15 15 14 15 16 16 14 14 14 14 14 14 13 13 13 14 14 14 15
0 1 3 3 4 2 3 3 2 3 3 1 0 2 2 2 5 6 8 11 9 4 1 2 3 5 4 5 1 10 13 12 14 17 18 18 18 18 18 17 16 15 15 15 15 15 15 16 17 17 17 18 19 20 19 17 17 18 17 15 14 16 16 16 15 15 14 14 16 17 14 13 15 15 15 15 14 14 14 15 16 16 16 16 14 14 15 14 14 14 14 14 14 14 14 14 15
1 2 3 2 3 3 3 3 1 1 2 2 2 4 3 5 7 5 8 10 8 7 6 2 5 4 0 1 2 6 10 12 15 17 18 18 19 19 18 17 16 15 15 16 15 15 17 18 18 18 18 19 20 21 20 20 20 19 17 16 18 19 18 18 17 15 15 16 17 15 13 15 14 14 15 14 13 13 14 16 17 16 15 15 14 14 15 14 14 14 14 14 14 14 15 15 15
3 2 3 2 3 4 4 3 2 0 2 1 2 4 6 7 5 6 12 11 8 8 7 5 6 5 3 4 5 6 8 11 13 15 16 16 16 16 16 17 16 15 16 16 16 16 17 18 18 19 19 20 21 21 21 21 20 19 18 19 20 19 18 19 18 16 17 18 17 15 15 15 14 15 15 13 13 14 15 16 16 16 14 14 14 14 14 14 14 14 14 14 14 14 14 15 16
2 2 3 2 4 4 3 3 3 1 2 1 4 7 7 4 2 7 12 9 7 5 5 5 5 5 4 5 6 6 7 9 11 12 13 13 13 13 14 15 16 17 18 17 17 17 17 17 18 19 20 21 22 22 22 22 21 21 20 20 21 20 20 20 19 18 19 19 17 16 16 16 16 16 14 13 14 14 14 15 15 14 14 14 14 13 14 14 14 14 14 14 14 15 16 17 17
1 2 1 1 3 3 3 3 2 2 3 2 5 9 8 1 2 6 5 2 3 3 2 3 3 5 5 5 6 7 8 9 12 11 11 11 12 13 14 15 16 17 17 17 18 18 18 18 19 20 20 21 22 23 23 23 23 23 22 21 22 22 22 21 20 20 20 19 17 16 17 18 18 16 14 14 14 14 14 14 14 14 14 14 13 13 13 14 14 14 14 16 17 18 17 16 16
1 1 1 1 3 3 4 4 2 1 2 1 6 12 9 3 2 8 5 4 5 4 4 5 5 5 5 6 6 6 8 9 11 10 10 11 12 13 14 15 16 16 17 18 19 19 19 19 20 21 21 21 23 25 25 25 25 24 23 22 23 23 22 22 22 22 21 19 19 18 19 20 19 17 15 15 14 13 14 14 15 15 15 14 13 13 13 14 15 16 17 17 17 16 16 16 17
0 1 3 3 5 3 5 4 2 1 0 1 6 10 5 7 7 11 7 5 5 4 4 5 6 6 5 6 5 5 7 8 9 10 11 11 11 11 13 14 14 15 16 16 17 18 20 20 20 21 21 22 24 26 26 26 27 26 24 24 24 24 23 23 24 24 22 21 20 20 21 20 19 18 16 15 14 13 14 14 15 15 15 14 14 13 14 16 16 16 17 15 14 15 16 17 17
1 3 3 2 3 3 5 3 2 2 0 2 4 5 3 7 12 9 5 7 5 4 6 6 6 6 5 5 5 5 6 7 9 10 11 10 10 10 11 12 12 13 14 14 15 17 18 19 20 21 22 23 24 26 26 26 26 26 25 25 25 25 25 25 25 25 23 22 21 21 22 21 20 19 18 16 15 14 14 14 15 15 15 15 14 14 14 15 14 15 15 15 15 16 17 17 17
1 1 1 3 2 2 5 3 3 2 0 2 2 1 5 4 8 8 7 7 7 6 6 5 4 4 5 6 5 4 5 8 9 10 10 10 10 10 11 12 11 12 13 14 16 16 17 18 18 20 21 22 22 23 24 25 25 24 24 25 25 25 26 26 26 25 24 23 22 22 23 22 22 20 19 18 16 15 15 15 15 15 15 14 14 14 14 14 14 15 15 16 16 16 17 17 18
2 1 1 1 1 1 4 2 2 1 0 2 0 2 7 7 2 7 7 7 8 7 6 4 4 4 4 5 6 5 5 7 9 9 9 9 9 9 10 10 9 10 11 13 14 15 16 17 16 18 20 21 21 22 23 24 25 24 24 24 25 25 25 26 26 25 24 24 23 23 23 23 23 22 21 19 18 17 15 16 16 15 14 14 15 15 15 15 15 15 16 15 16 17 17 17 18
2 1 2 2 2 1 1 0 0 0 1 3 3 2 6 6 1 6 7 8 8 6 5 4 3 3 2 2 4 4 3 4 6 6 6 6 7 8 7 6 6 7 9 11 12 13 15 15 15 16 18 19 20 20 21 22 24 24 24 24 24 24 25 26 26 25 25 24 24 25 24 24 24 23 22 21 20 18 16 16 17 16 15 16 17 16 16 16 15 16 16 16 16 17 17 18 19
2 1 3 3 3 4 3 1 0 1 1 2 4 4 10 12 7 6 7 9 8 7 6 2 0 2 3 2 3 3 3 3 3 6 6 4 3 1 2 5 7 8 9 10 10 11 12 13 14 15 16 18 19 20 21 21 22 23 23 23 23 24 25 26 26 26 26 26 26 26 26 25 25 24 23 22 20 19 18 17 17 16 16 17 17 18 18 17 16 17 17 17 16 17 17 18 19
3 4 3 4 4 5 5 1 0 2 3 3 5 6 13 16 11 8 6 6 7 6 4 3 3 3 5 4 4 4 5 5 7 9 7 6 8 8 8 8 9 10 11 11 11 11 12 12 12 13 15 16 17 18 20 21 21 22 22 22 23 24 25 26 26 27 27 27 27 28 27 27 26 25 24 23 21 20 19 18 18 17 17 18 18 19 19 18 17 17 18 19 18 18 18 19 20
4 4 2 5 4 5 6 0 2 0 1 5 7 7 12 16 12 7 7 6 3 3 5 5 4 4 5 5 5 5 6 6 6 6 5 9 13 11 9 10 10 9 11 11 10 11 12 13 14 15 15 15 16 17 18 19 20 21 22 23 24 25 26 27 27 28 29 28 28 28 27 27 27 26 25 24 22 21 20 19 19 18 18 18 19 20 20 19 17 17 18 18 19 19 19 20 20
3 4 4 6 5 6 6 0 2 2 1 6 7 8 12 16 13 9 7 2 4 5 6 5 5 5 5 6 6 6 7 5 6 9 12 13 12 10 9 10 7 5 8 10 9 10 12 13 14 15 15 15 15 16 18 18 18 20 21 23 24 25 25 26 27 28 29 29 29 28 28 28 27 27 26 25 23 22 21 21 20 19 19 19 21 22 21 20 19 18 18 18 18 18 19 19 17
2 3 4 6 5 6 2 4 3 2 1 5 8 8 12 15 13 10 5 3 5 5 7 6 6 6 5 6 7 6 6 5 8 14 16 14 10 10 10 11 9 7 10 10 10 12 13 14 14 15 15 16 15 16 17 18 19 19 21 22 23 23 23 24 26 26 27 28 28 28 28 28 28 28 27 26 25 24 23 22 22 21 21 21 22 22 22 21 20 19 19 19 19 19 19 19 17
3 3 4 5 4 3 2 4 3 3 2 5 8 7 11 16 13 7 1 6 5 4 6 5 6 7 6 6 6 6 6 6 9 11 13 14 13 13 13 12 12 11 11 12 13 15 15 15 15 15 16 16 16 16 16 18 19 19 20 21 22 22 21 21 22 23 23 24 26 27 28 28 29 29 29 28 27 25 25 24 24 23 22 22 22 23 23 22 21 20 20 20 19 18 19 20 18
4 4 4 5 2 2 1 1 1 2 4 7 8 6 10 13 6 1 4 5 5 5 6 5 4 5 6 6 5 6 8 8 8 7 9 13 13 13 13 12 12 10 10 13 16 16 15 16 16 15 16 16 16 16 16 17 18 19 20 21 22 23 24 23 23 23 22 22 24 25 27 29 30 30 30 29 28 27 26 26 25 24 23 23 23 24 24 23 22 21 20 20 19 18 18 19 19
4 5 4 4 2 2 2 3 5 7 5 4 5 6 6 4 3 4 4 4 5 5 5 4 2 4 6 5 6 8 9 8 7 6 7 10 12 12 12 12 12 10 11 13 16 17 17 16 15 15 16 17 16 16 16 16 16 18 19 21 21 22 24 24 25 27 27 27 28 28 30 31 31 32 32 30 30 29 28 27 26 25 24 24 24 25 25 24 23 22 21 21 21 20 19 18 18
3 2 1 2 3 3 4 6 7 5 3 1 2 4 3 1 3 5 4 4 5 5 5 5 4 4 5 6 8 9 8 7 6 6 7 9 11 12 12 12 12 12 14 15 17 20 20 18 17 17 17 18 17 16 16 16 16 16 18 19 20 21 22 22 23 25 27 28 29 31 32 33 33 33 33 33 32 30 29 29 27 27 26 25 25 26 26 25 24 23 22 21 22 22 20 18 18
3 2 4 4 4 3 5 5 3 2 4 3 2 1 3 4 3 4 7 6 6 6 5 6 6 5 6 8 8 6 6 6 5 6 8 9 10 10 11 12 12 13 14 16 18 20 19 19 19 19 20 18 17 17 17 17 16 16 17 18 20 21 22 24 25 26 27 28 28 29 30 31 33 33 33 33 32 31 31 30 29 28 28 27 27 26 27 26 25 24 23 23 23 23 22 20 20
3 3 2 3 2 4 4 4 2 3 6 5 4 4 2 5 3 4 8 8 8 7 5 4 5 7 9 8 7 7 7 6 6 6 6 8 10 10 10 11 12 14 16 19 20 21 21 20 21 23 23 20 18 19 20 19 17 17 17 18 20 21 23 25 27 27 28 28 28 28 28 28 29 31 32 32 32 31 31 30 30 29 29 29 28 28 28 27 26 25 24 24 24 23 24 23 21
1 2 0 2 4 4 3 3 4 4 4 5 3 4 2 4 2 2 5 7 8 6 5 7 8 9 8 7 7 7 7 6 6 6 6 8 10 11 11 11 13 16 19 22 22 23 23 23 22 23 23 20 21 23 23 22 20 19 19 19 21 23 24 26 27 27 28 29 28 28 28 26 26 27 30 31 31 31 31 31 30 30 30 30 29 30 29 28 27 27 26 25 26 25 25 24 23
1 1 2 4 4 3 2 3 4 4 3 3 3 4 2 4 2 2 2 4 5 5 6 7 7 8 7 7 7 6 6 6 6 6 8 10 11 12 11 10 14 18 21 22 23 24 24 23 22 22 21 20 22 22 22 22 22 21 21 21 22 24 26 27 27 27 27 28 28 29 28 26 26 26 28 29 30 31 31 32 31 31 31 30 30 30 29 29 28 28 28 27 27 27 27 26 25
1 3 4 5 3 3 2 4 2 2 3 2 2 3 1 2 2 1 2 2 4 5 6 6 6 7 7 6 6 6 5 5 5 6 9 11 12 13 10 11 16 19 21 22 24 25 25 22 21 23 23 24 23 20 21 22 21 20 21 23 24 26 27 26 26 27 27 28 28 29 29 28 27 28 28 29 30 31 32 32 32 32 31 31 30 30 30 30 29 29 29 29 28 28 28 27 26
1 2 4 4 1 1 0 2 1 1 2 1 1 1 1 2 1 1 2 3 5 6 6 6 6 6 6 6 6 5 5 5 5 5 8 10 11 12 10 14 16 19 21 23 25 25 24 22 22 24 24 25 25 22 22 23 20 18 20 22 24 25 26 25 26 27 27 27 28 29 29 28 28 28 28 29 30 31 31 32 32 32 32 32 32 31 31 30 29 29 29 29 30 29 28 28 27
2 3 3 3 2 1 1 2 1 2 2 2 1 1 3 4 2 5 5 5 6 6 6 6 6 6 5 6 5 4 4 4 5 5 7 7 10 11 11 14 16 19 22 26 27 26 24 22 22 23 23 25 26 25 26 24 20 18 21 24 25 24 24 24 25 26 27 27 27 28 28 28 29 28 28 29 31 31 32 33 33 33 33 33 33 32 31 30 30 29 29 30 30 30 30 29 29
3 2 1 2 2 2 3 3 3 3 1 2 2 1 3 4 1 7 8 6 6 6 7 6 7 6 6 6 5 4 4 4 4 6 6 6 10 11 11 13 17 20 24 27 26 25 24 23 23 23 24 24 26 26 27 25 21 21 24 25 25 24 22 23 24 25 27 27 26 27 28 28 29 30 30 29 30 31 32 34 34 35 34 33 33 32 31 31 30 30 29 29 30 31 31 30 30
2 1 2 1 1 2 3 2 2 4 3 2 2 1 3 4 2 7 8 7 6 6 7 7 7 6 6 5 4 5 5 5 5 7 7 9 14 11 10 15 18 21 24 24 24 25 24 25 26 26 25 25 26 26 26 26 25 25 25 23 24 25 25 27 28 27 26 26 26 26 27 29 30 31 32 32 31 30 30 32 33 34 34 33 33 32 31 31 30 31 30 29 30 30 30 31 31
1 1 2 1 1 2 2 3 4 5 4 3 2 2 3 1 5 7 7 6 6 7 7 7 7 6 6 5 5 6 6 6 7 7 8 11 17 16 15 19 22 23 24 22 24 27 26 28 29 28 27 27 28 27 27 27 27 26 25 25 26 27 28 29 30 29 27 25 25 25 26 28 30 31 32 32 32 31 29 30 31 33 34 33 33 33 32 32 31 31 31 30 30 30 30 30 30
0 1 1 2 2 1 1 4 5 3 4 3 3 3 2 3 3 5 6 6 6 6 6 7 6 5 5 5 5 6 7 7 7 7 7 10 16 19 19 21 22 23 22 23 26 29 29 30 30 30 30 30 29 29 30 30 28 27 27 27 28 28 28 30 30 30 29 27 25 24 25 27 28 29 31 31 32 32 31 30 30 32 33 33 33 33 33 32 32 32 32 31 30 29 29 30 30
0 1 3 2 1 2 1 2 2 1 4 3 3 3 3 2 3 3 4 6 5 5 6 6 6 6 6 6 7 8 7 7 6 7 8 11 16 19 20 22 23 23 24 26 29 30 31 31 31 31 31 31 31 32 33 32 30 30 30 29 29 29 30 30 30 31 31 29 26 24 24 25 26 27 29 30 31 32 31 31 31 31 32 32 32 32 33 33 32 32 32 32 31 29 29 30 30
1 3 3 0 1 1 1 1 1 2 4 3 3 5 4 3 2 3 3 4 5 6 6 6 7 9 9 9 9 9 8 7 7 7 8 12 17 20 22 25 26 27 27 29 31 32 33 32 31 32 33 34 34 34 35 36 34 33 33 32 32 31 31 31 31 33 33 31 29 26 25 26 26 26 27 29 31 31 31 32 32 32 32 32 32 32 32 32 32 32 31 31 31 30 30 30 30
1 2 2 2 1 2 2 1 0 2 4 4 3 3 2 1 3 4 2 4 6 6 6 7 9 10 9 9 8 8 8 8 8 8 8 11 17 21 24 25 26 27 28 29 31 31 31 31 33 35 37 37 36 36 37 38 38 37 36 34 33 33 33 33 34 35 34 32 31 29 27 25 24 25 26 27 29 30 31 33 34 34 34 33 32 32 32 32 32 32 32 31 30 30 30 30 30
2 1 1 1 1 1 1 2 2 2 4 3 4 3 1 1 2 4 5 6 8 8 8 7 8 8 7 7 7 7 8 8 8 7 7 11 18 23 25 26 26 27 28 29 29 29 29 31 35 37 38 37 36 37 39 40 40 40 38 36 35 36 36 36 36 36 35 33 32 30 27 24 22 23 25 27 29 30 31 33 34 35 35 34 34 33 33 32 32 33 32 31 31 30 30 31 30
2 2 2 2 2 1 2 4 1 1 2 2 3 4 3 2 2 5 7 7 8 8 7 6 6 7 7 7 8 9 10 9 7 6 8 13 19 23 26 27 27 27 27 28 28 29 31 34 37 38 38 37 37 38 40 41 40 39 38 38 38 39 39 38 38 37 35 33 31 29 26 23 21 21 22 25 27 28 30 32 33 34 35 35 35 34 34 33 33 33 32 32 31 30 31 31 30
Wind_Direction
331 344 315 290 286 287 278 247 250 222 233 90 106 131 89 86 121 129 129 142 129 77 68 78 64 42 22 355 36 69 42 359 360 210 190 148 144 142 144 135 127 124 116 105 97 84 27 31 42 36 35 32 30 28 26 25 23 23 21 20 18 17 15 14 12 11 10 9 8 7 7 5 4 4 4 4 4 4 4 5 5 5 5 5 5 5 3 2 0 359 358 358 360 2 0 359 360
324 323 293 273 260 264 283 132 255 223 200 143 84 87 111 136 144 115 115 114 92 109 103 80 73 68 83 327 294 104 73 35 71 87 112 136 140 143 150 143 135 129 116 106 96 105 17 27 45 38 36 33 30 29 27 26 24 23 22 21 19 18 16 14 11 10 9 8 7 6 5 4 4 5 4 4 4 3 3 3 4 5 5 5 5 4 3 1 359 359 359 358 359 0 359 358 360
330 320 294 280 250 239 275 170 251 256 212 139 88 94 134 145 108 86 89 100 103 121 116 107 109 83 227 220 237 234 162 131 115 105 123 146 151 154 158 153 145 132 117 109 95 121 358 22 47 41 37 34 32 31 29 28 26 25 23 21 19 17 17 14 11 9 7 6 5 4 4 3 4 4 4 3 3 2 1 1 2 3 4 5 4 3 3 1 360 359 359 359 359 359 357 356 359
326 322 295 295 255 216 260 214 252 284 350 88 101 137 154 114 105 97 97 111 117 132 136 139 132 15 296 238 342 341 136 135 125 120 139 164 168 160 160 151 143 134 123 109 98 104 349 21 53 48 41 37 35 34 32 30 28 27 25 23 21 18 17 14 11 8 5 4 3 3 2 1 2 2 2 2 1 360 360 360 1 2 2 3 2 2 1 1 360 359 359 359 359 358 356 356 358
308 281 261 290 283 216 293 248 276 358 31 15 115 152 133 108 116 117 117 119 116 116 106 140 118 96 298 310 330 312 132 115 121 125 132 148 154 158 160 141 137 141 136 115 114 119 359 31 62 58 49 44 40 37 34 32 30 28 27 24 22 19 16 14 11 8 4 2 1 1 0 359 360 0 0 0 359 358 359 359 360 0 360 360 359 359 359 359 359 359 359 359 359 357 357 357 358
306 277 240 270 270 149 286 255 33 84 29 334 114 132 113 114 125 121 123 115 106 92 82 226 33 74 244 135 49 49 124 127 132 130 134 140 148 160 153 137 145 147 140 124 126 145 19 41 68 72 62 54 48 43 38 34 32 29 28 26 24 21 18 14 10 7 4 2 360 359 358 356 356 357 358 358 357 355 357 358 358 358 357 357 357 356 357 357 357 358 358 358 357 357 357 358 358
317 311 230 247 228 166 263 248 70 89 14 1 93 128 113 117 126 124 135 126 122 126 120 232 58 47 247 126 81 89 105 120 137 142 148 149 152 159 146 144 157 147 144 139 143 179 39 48 79 91 80 72 59 51 44 37 34 30 28 26 24 21 18 14 10 5 1 359 356 355 353 353 353 354 354 354 354 353 354 356 356 356 355 355 354 353 354 354 355 355 355 356 355 355 356 357 357
289 310 283 283 247 204 261 84 65 60 73 43 59 106 111 120 134 135 153 154 160 160 165 176 134 213 270 351 234 130 117 113 134 143 149 152 155 159 151 153 159 153 158 155 165 225 29 53 85 104 104 92 74 61 47 37 32 29 26 24 22 19 17 14 10 4 358 354 351 350 349 348 348 348 350 350 351 350 350 353 353 353 353 352 351 350 351 350 352 353 352 353 353 353 354 354 355
242 229 314 266 255 214 215 111 92 83 116 95 65 90 107 124 142 143 166 162 146 163 171 168 169 182 131 195 150 144 141 126 136 143 149 156 160 161 157 162 165 163 167 166 177 221 245 40 70 106 116 97 76 65 42 26 21 20 19 18 17 14 14 12 8 4 358 352 348 346 345 343 342 342 344 346 347 348 348 349 350 350 350 349 347 347 348 347 348 350 349 349 349 350 351 351 353
231 177 293 275 278 231 195 123 114 111 122 119 110 118 121 136 152 151 177 173 147 160 154 146 175 203 215 191 133 159 161 148 145 148 154 161 164 165 163 168 172 172 175 177 179 195 225 262 344 79 105 87 42 26 11 1 2 5 6 6 6 6 6 7 5 2 359 353 348 344 343 340 338 337 339 342 344 344 344 346 347 347 346 346 344 344 344 344 345 346 345 345 346 347 347 348 348
262 183 139 284 272 253 81 102 113 115 118 117 130 135 135 148 160 160 188 188 147 143 127 133 188 221 243 234 63 136 155 158 157 156 162 165 168 169 168 173 178 182 183 185 186 196 229 258 272 286 301 308 329 346 351 348 349 354 356 356 355 356 358 1 1 360 359 355 351 347 344 340 336 335 336 338 340 341 340 341 342 342 341 342 341 340 341 341 342 344 343 342 343 343 344 343 341
284 262 117 268 281 354 26 84 114 115 127 141 151 142 148 156 165 174 186 197 164 165 158 164 192 233 224 234 194 138 151 165 164 162 166 167 173 172 173 181 185 189 190 194 200 202 225 252 265 274 279 296 311 324 340 342 341 344 348 347 346 349 352 355 358 359 358 357 355 351 347 342 339 336 334 333 335 335 334 335 336 335 334 335 337 335 336 338 338 340 339 339 341 340 340 336 334
300 328 330 277 318 10 6 45 110 129 158 173 164 146 154 165 180 189 185 199 194 201 183 175 150 28 234 218 131 151 161 171 165 165 168 170 177 176 178 187 192 197 199 203 208 209 216 233 253 269 276 291 304 312 325 331 332 335 339 339 340 344 348 351 356 357 357 359 358 354 352 345 339 335 331 329 330 328 326 330 330 328 327 328 332 333 332 333 335 336 336 336 337 336 335 332 331
317 345 326 280 314 332 357 96 129 174 162 128 132 137 160 179 190 185 196 215 196 207 151 162 144 145 251 223 147 174 172 170 164 166 170 172 176 180 186 190 199 203 207 213 217 216 216 225 234 248 263 279 293 300 306 313 319 325 329 332 336 340 345 349 353 355 355 358 357 356 356 348 338 336 333 329 327 322 319 323 325 324 322 323 327 329 329 330 332 332 333 334 334 333 330 330 330
336 338 303 281 248 193 16 72 105 295 97 107 115 137 164 147 127 161 210 247 147 95 67 123 150 148 279 247 176 144 155 162 162 166 168 173 177 185 192 195 205 209 214 219 223 225 222 227 230 233 246 259 269 272 283 296 302 310 319 326 331 336 343 345 348 352 352 354 353 354 358 355 346 341 334 328 325 319 315 318 321 320 318 320 321 324 325 327 330 329 330 330 331 329 328 332 333
350 332 279 270 239 134 8 356 73 323 92 112 135 145 167 119 49 164 86 343 90 149 136 171 188 208 321 20 108 113 141 155 159 164 165 172 180 187 196 202 211 218 224 226 226 229 228 227 230 231 236 244 243 239 252 274 283 295 312 324 327 332 338 336 342 348 346 349 348 350 358 3 353 337 330 327 323 316 313 315 317 316 315 315 316 317 319 324 327 323 324 324 323 326 329 337 338
341 298 254 268 274 86 12 356 48 226 114 118 152 159 189 148 143 177 81 294 252 194 187 216 200 221 288 115 129 126 140 154 156 160 165 175 185 191 202 210 215 222 228 231 231 230 230 228 227 228 231 235 235 239 247 258 270 290 312 324 314 316 324 322 333 340 335 341 340 344 356 2 345 334 335 330 319 314 314 316 316 315 314 313 312 311 313 322 323 316 319 317 316 323 329 338 338
297 276 267 305 13 56 4 18 33 316 124 131 162 174 220 170 163 159 124 224 230 234 220 223 210 215 222 136 140 143 147 158 161 165 171 180 190 196 205 212 217 224 226 230 234 232 230 230 228 227 229 233 235 241 249 259 272 293 309 305 296 301 312 309 318 327 325 331 331 339 352 349 338 340 344 332 319 318 319 318 317 316 315 314 314 312 314 320 319 313 317 314 315 323 324 333 334
309 313 313 9 34 51 18 33 38 356 73 123 154 178 236 149 144 152 196 228 214 231 231 220 219 220 200 148 147 155 158 166 170 175 181 187 193 200 206 211 214 220 225 227 231 232 229 227 226 226 227 231 233 236 244 256 270 287 284 278 288 290 298 296 303 315 316 320 322 334 342 337 339 345 343 329 319 319 318 317 317 317 317 319 319 316 315 318 316 312 315 312 314 320 319 324 327
5 11 352 57 66 75 44 41 48 14 30 126 142 138 244 144 114 144 222 263 244 239 235 215 212 218 210 170 159 164 168 175 179 185 191 197 200 205 210 213 215 217 222 225 228 230 228 224 223 225 227 229 232 236 243 252 264 270 260 268 280 279 285 287 295 304 307 311 314 325 331 333 340 343 339 331 322 319 317 317 316 316 318 320 320 315 314 315 309 307 311 311 310 314 318 318 319
5 27 29 42 3 60 56 45 44 14 3 36 119 120 260 177 127 174 234 271 256 247 245 231 224 213 214 186 167 169 174 179 186 194 198 205 208 213 218 222 226 226 225 222 223 224 225 226 223 224 228 231 233 239 249 258 264 260 257 269 276 272 274 282 291 294 301 304 301 314 324 330 335 335 335 331 325 320 315 315 315 316 314 315 317 312 309 308 303 306 310 310 309 310 316 317 317
10 31 61 30 356 50 81 65 35 354 344 357 124 166 295 49 193 219 236 247 245 261 63 352 317 31 60 62 158 167 176 184 189 199 205 210 214 218 224 228 232 235 233 224 220 223 225 227 226 226 229 233 237 241 251 260 259 256 262 273 270 261 268 279 283 285 295 291 289 308 319 322 323 327 332 328 324 317 312 314 313 313 312 313 315 308 303 302 302 306 307 306 308 310 315 317 317
137 62 81 38 18 68 97 88 28 343 329 308 60 330 337 320 269 242 232 236 246 265 61 83 58 55 38 11 74 164 174 189 196 205 209 213 217 220 225 229 232 233 234 232 230 229 227 227 229 231 233 235 239 244 249 255 257 259 266 269 261 259 269 277 276 283 288 279 289 305 307 307 312 321 326 324 322 315 311 311 309 309 310 309 308 302 298 298 300 302 304 304 307 310 312 313 315
93 101 110 64 62 97 97 104 108 360 317 321 354 325 296 267 271 272 252 245 247 259 269 245 129 119 226 285 257 186 180 193 203 211 215 217 221 225 229 232 235 237 237 236 235 234 231 232 232 235 238 238 240 246 250 255 259 260 262 261 259 264 273 275 276 282 278 277 293 297 289 296 304 313 318 318 317 313 310 307 306 307 304 301 301 299 295 295 298 299 300 302 305 306 306 308 312
54 100 130 121 114 120 112 131 151 234 270 299 309 281 261 260 285 287 266 258 253 248 258 249 177 164 208 229 232 216 199 204 211 218 220 221 224 228 233 236 239 241 241 241 239 238 238 239 238 236 238 240 241 245 250 255 258 258 257 257 260 266 270 270 275 275 270 279 290 285 282 288 292 303 311 310 311 311 308 305 303 303 299 295 295 294 293 292 293 294 296 298 302 302 302 304 305
15 98 134 152 138 132 129 172 179 213 244 217 266 268 260 266 353 281 263 257 252 235 233 237 209 190 201 222 227 222 219 218 219 222 224 224 226 229 234 238 240 242 243 246 244 243 243 242 241 239 238 241 242 244 247 251 253 255 255 257 260 262 263 266 270 269 270 279 282 278 278 279 283 297 303 301 305 309 308 303 298 296 291 286 285 287 288 287 287 289 293 293 294 294 297 300 301
261 109 84 118 135 152 164 229 194 204 255 241 272 276 265 219 93 260 254 162 159 142 195 214 218 215 210 217 216 215 221 226 223 223 223 220 221 229 236 239 240 244 245 247 247 247 248 245 244 244 243 242 242 244 246 248 250 254 256 258 259 260 261 263 265 266 271 276 275 272 270 273 281 289 292 294 301 306 304 298 292 287 281 279 279 281 283 282 281 281 282 285 289 292 294 296 298
245 123 302 172 176 182 182 231 213 220 254 212 281 281 263 170 156 243 218 132 149 156 194 199 208 220 217 221 214 209 214 225 228 224 223 222 221 226 233 238 240 245 247 249 250 250 250 248 246 247 247 244 242 244 247 249 251 253 255 256 258 259 259 260 261 263 268 270 270 268 267 271 277 279 282 289 296 298 296 292 288 282 277 276 275 275 277 274 273 275 280 287 292 292 291 292 295
308 208 270 197 191 198 197 207 158 177 32 22 295 294 259 176 215 246 206 156 154 172 216 212 211 210 208 217 207 205 206 214 220 219 225 229 231 232 236 241 243 245 248 252 254 252 251 251 249 249 249 246 244 245 247 251 253 254 254 254 256 256 256 258 259 261 264 266 265 264 265 268 270 273 278 283 288 288 289 288 284 279 274 273 272 270 270 271 274 280 285 289 289 287 288 291 293
232 227 274 233 206 191 188 177 147 179 110 340 317 322 297 201 217 232 158 152 160 183 221 219 215 200 191 196 190 200 198 200 208 216 224 230 236 241 247 251 250 250 253 256 255 255 255 254 252 252 252 250 248 248 248 250 253 256 257 255 255 254 254 257 258 260 263 262 260 260 263 265 266 270 273 276 281 283 285 283 279 277 273 270 269 268 268 270 275 280 281 282 282 285 286 287 290
203 130 301 240 252 172 161 151 181 189 170 310 344 287 290 273 216 196 147 160 174 195 221 226 236 207 176 172 179 198 195 198 209 218 224 230 239 243 250 256 255 256 259 261 263 266 267 265 262 260 260 258 255 253 253 254 256 258 260 259 257 255 256 257 259 260 261 260 258 258 260 262 265 267 269 272 275 279 281 279 276 275 271 267 265 265 265 265 271 274 274 276 279 281 282 283 287
216 66 316 255 333 177 164 156 192 162 131 194 79 254 280 313 248 169 157 177 189 206 230 237 252 239 190 169 168 186 199 202 211 222 229 231 238 244 251 259 266 271 276 279 282 285 283 282 278 272 270 268 265 262 261 261 261 260 261 262 260 258 257 258 259 259 260 259 258 257 258 260 262 263 265 267 270 274 276 275 274 270 265 259 259 261 261 263 269 271 270 272 276 278 279 281 284
229 221 311 319 339 307 199 193 158 6 11 184 189 253 282 298 151 157 179 197 199 215 236 236 244 231 192 156 147 159 178 192 204 208 210 213 224 239 252 278 302 309 309 306 304 301 297 296 292 286 281 278 275 272 269 268 265 262 260 261 261 259 258 258 258 258 258 258 257 257 257 257 259 260 261 262 265 269 270 270 270 266 261 255 254 255 256 260 263 266 269 268 271 274 275 277 281
293 337 322 302 327 329 288 246 128 194 166 205 210 228 265 269 261 245 224 198 198 217 223 219 302 143 128 115 124 134 150 157 134 114 116 147 172 163 29 8 357 352 346 340 333 324 316 311 306 300 294 288 283 278 275 273 270 267 263 260 260 260 259 258 258 258 257 257 257 256 256 256 256 256 257 258 260 263 264 265 264 262 257 251 250 252 254 256 256 260 265 264 265 269 273 276 279
298 325 319 309 330 312 289 250 189 208 176 251 259 249 265 272 275 275 266 229 212 211 184 113 75 119 127 129 142 141 131 106 86 91 98 100 90 73 52 32 17 13 8 360 353 346 339 332 325 316 309 302 293 284 278 277 273 269 266 262 259 259 260 259 259 258 257 256 256 256 255 255 254 254 254 255 257 259 260 259 258 256 252 248 247 248 249 250 253 255 259 261 262 264 268 272 275
293 308 288 285 294 283 289 358 120 30 265 269 266 257 273 283 286 291 292 276 213 129 99 100 113 129 130 129 128 118 98 88 94 96 96 96 82 61 42 23 13 20 16 2 354 353 348 339 330 324 321 313 302 291 283 279 276 269 266 264 261 260 260 260 260 260 259 258 257 256 254 253 253 252 252 253 255 257 257 255 253 252 249 245 242 241 243 245 247 250 255 260 262 264 265 266 269
295 299 270 268 270 271 283 98 117 60 317 261 260 269 279 283 288 297 296 310 102 107 105 118 143 137 130 123 112 103 98 111 109 74 73 88 75 47 32 10 3 27 19 10 12 7 352 340 332 325 322 316 307 298 289 282 277 273 269 267 267 267 266 264 263 262 261 260 258 256 253 253 252 251 251 252 254 255 255 253 251 249 244 240 238 239 241 241 241 244 250 256 260 264 266 263 264
281 270 273 275 266 272 305 100 148 112 63 271 275 283 281 281 289 295 285 121 112 133 135 144 145 131 122 115 111 110 110 114 90 68 68 75 58 40 29 12 16 24 24 33 30 9 352 345 340 332 328 320 312 306 298 288 280 277 276 274 275 275 273 271 268 267 266 263 259 256 253 252 251 250 251 251 252 253 253 251 249 248 244 240 239 239 240 239 238 240 245 251 255 259 263 263 262
256 249 268 273 263 288 9 94 146 134 114 275 291 302 287 284 286 291 307 112 104 97 110 121 123 124 121 108 104 100 85 69 68 62 54 47 35 28 21 20 27 24 32 37 18 2 354 350 346 340 336 328 319 312 306 299 291 284 282 283 283 281 279 279 278 276 272 265 260 257 254 252 251 251 251 251 252 253 252 251 249 248 245 241 238 238 237 237 237 236 238 244 250 254 258 260 257
233 228 240 265 312 6 288 119 35 261 244 270 298 303 283 284 280 60 60 87 91 73 71 65 73 97 99 94 88 79 70 60 56 52 38 29 25 19 17 24 25 26 42 29 7 358 354 352 350 345 342 335 328 320 312 307 301 291 285 287 287 282 279 279 278 276 273 267 263 259 256 254 253 253 253 253 253 254 253 251 248 246 244 242 238 236 237 236 236 234 234 237 242 248 252 254 252
234 215 229 263 345 30 259 309 321 292 273 277 311 302 275 265 179 133 75 89 101 92 90 78 52 75 81 80 76 69 68 62 48 39 28 23 21 14 18 26 21 32 45 25 7 357 348 345 343 343 343 339 333 327 317 312 306 298 292 291 290 284 280 279 276 274 272 268 265 262 259 256 254 254 254 254 254 254 253 250 247 245 243 241 238 236 238 238 237 234 232 232 234 238 243 250 250
274 248 345 7 35 14 304 323 329 312 303 249 2 322 290 225 173 151 121 133 130 125 132 137 156 134 101 77 71 67 66 66 51 39 29 24 20 11 18 25 24 39 39 20 7 358 351 346 339 335 337 337 334 331 325 318 312 307 300 296 295 290 285 284 282 282 281 277 272 267 262 258 255 254 254 254 254 253 251 249 245 244 243 241 239 237 238 238 238 234 231 229 231 233 237 245 248
291 294 10 33 31 338 293 318 338 310 298 254 164 221 273 318 309 154 147 152 135 143 168 164 160 135 95 74 71 70 64 58 43 35 29 22 15 10 19 22 25 40 32 14 3 357 354 350 345 338 331 329 331 332 330 324 316 313 306 299 296 293 289 289 290 291 290 289 286 278 268 261 256 254 253 252 252 251 248 246 244 243 242 241 238 236 236 236 237 235 232 229 230 232 233 237 242
263 246 5 17 315 282 283 314 279 248 300 281 193 169 253 298 301 160 153 146 138 159 174 133 98 81 79 75 71 65 56 45 33 27 19 14 10 8 16 19 28 38 25 8 359 355 353 349 348 344 337 335 340 342 339 331 319 312 309 304 300 297 294 294 297 297 295 293 291 286 277 266 257 253 252 251 250 249 246 244 243 242 241 239 237 235 235 235 235 235 233 229 229 229 229 233 237
254 207 339 287 260 272 287 293 262 259 306 296 202 157 237 274 250 167 153 136 134 141 102 74 69 73 79 74 64 57 56 50 35 21 6 5 4 3 12 24 35 33 17 3 356 353 349 344 344 345 344 346 348 347 344 339 329 316 309 306 304 303 303 302 302 302 300 298 293 289 284 271 260 254 252 251 250 248 245 243 242 241 240 238 237 236 235 235 233 232 231 227 226 226 227 231 234
235 238 246 252 240 242 249 239 259 269 270 276 211 174 233 281 248 175 145 108 103 98 79 73 77 79 73 68 66 60 60 51 29 18 3 358 1 360 8 35 39 25 10 360 355 351 345 342 344 345 345 342 337 336 337 338 335 325 314 307 303 305 308 309 307 305 305 304 298 294 289 276 265 258 254 251 249 247 246 243 241 241 240 239 237 237 237 236 233 230 229 227 224 224 225 228 232
290 280 267 266 231 183 210 224 238 289 257 246 194 185 210 308 308 72 86 98 110 105 87 73 71 67 57 63 67 58 59 44 22 13 355 354 359 355 9 47 38 16 4 359 354 349 345 345 348 347 344 340 335 331 330 331 332 333 325 316 308 305 307 308 308 307 307 308 303 299 295 284 272 263 259 255 250 247 245 243 241 241 240 239 237 238 237 236 234 232 230 228 226 224 223 225 228
326 286 284 300 284 131 165 221 171 216 252 246 270 299 255 224 246 95 112 102 101 104 94 77 67 60 52 60 60 52 53 36 23 9 349 351 352 351 25 49 27 7 1 355 348 344 345 347 347 345 343 343 340 335 333 330 328 333 333 325 316 308 306 304 302 303 304 306 304 301 299 292 282 272 264 258 254 249 244 242 241 240 239 238 237 238 238 237 235 233 231 229 228 226 224 222 223
231 269 310 337 322 304 274 237 227 228 216 185 169 325 258 239 176 137 131 96 89 98 98 91 81 73 63 64 60 54 51 31 27 13 352 349 349 1 41 39 13 3 359 351 346 344 344 345 344 342 339 339 338 334 333 329 321 322 326 324 317 307 304 302 298 298 299 300 301 301 300 296 291 283 273 263 257 252 247 243 241 239 239 238 238 238 238 237 234 232 231 230 229 228 225 223 221
240 254 25 13 335 315 288 265 261 270 254 186 164 83 271 270 141 131 123 108 113 109 108 107 94 83 73 69 58 47 39 28 34 17 359 355 357 15 43 25 7 3 355 347 345 345 344 343 340 336 333 334 334 331 330 328 319 316 319 321 317 309 305 304 299 295 295 295 295 295 297 296 293 289 284 276 267 258 250 246 242 241 240 239 240 239 238 236 234 232 232 231 230 229 227 226 224
249 177 99 124 185 249 261 283 287 282 301 262 162 93 276 271 152 131 115 111 114 97 103 102 82 75 73 67 49 34 23 18 25 14 6 360 354 6 33 17 4 356 349 346 347 347 345 342 338 333 330 331 332 331 330 328 322 319 319 321 321 317 314 310 302 293 288 289 289 290 292 293 291 289 288 285 279 268 255 248 243 241 241 240 240 240 238 236 233 232 232 232 232 230 227 228 227
260 65 55 192 213 252 267 299 281 272 297 286 186 235 271 81 110 127 114 102 92 76 79 77 64 57 54 43 31 29 20 16 19 12 4 353 351 2 16 7 356 348 346 349 351 348 344 340 336 333 331 330 330 328 326 323 319 316 315 316 316 315 313 310 305 297 290 286 285 285 288 291 290 289 289 287 283 276 264 252 245 241 241 241 241 239 238 236 233 231 231 232 232 230 228 227 227
244 67 321 231 194 105 304 292 282 267 280 249 187 236 243 97 117 154 119 86 79 72 69 70 61 48 45 40 33 30 23 15 15 7 353 352 1 7 4 355 348 346 349 352 351 348 343 339 336 334 333 330 328 327 323 319 314 310 308 308 308 306 305 304 302 302 298 292 284 280 283 287 289 289 289 288 285 278 268 258 248 243 241 241 241 239 238 236 233 231 231 231 232 231 229 228 227
91 205 285 294 45 80 90 300 309 295 266 234 193 246 245 211 226 180 104 70 68 62 54 54 42 31 29 30 30 27 22 14 6 358 354 4 9 1 352 350 349 350 352 351 349 347 343 339 337 336 334 332 330 328 324 320 314 308 304 302 301 301 301 301 300 302 302 297 289 282 280 282 285 288 290 290 287 279 269 260 252 245 243 242 241 240 238 236 233 232 232 232 232 231 230 230 228
150 243 288 6 84 324 191 244 301 280 274 268 241 250 263 257 198 139 76 61 65 46 38 34 24 20 17 19 20 16 14 6 357 359 6 9 2 352 349 351 349 350 351 350 349 346 342 341 340 339 336 332 330 328 325 321 316 310 304 301 300 300 302 303 303 304 302 296 290 287 284 279 280 286 290 291 289 280 269 262 255 249 245 244 243 240 238 236 233 232 232 233 232 231 231 231 230
158 276 315 79 150 212 195 220 244 254 275 287 269 247 275 278 142 122 81 79 77 46 34 28 20 18 15 15 13 10 9 359 359 10 7 356 352 350 351 350 348 348 347 345 344 342 342 343 343 340 334 330 327 326 325 322 319 315 310 306 305 304 305 305 304 303 300 295 291 289 285 280 279 283 287 288 288 281 270 262 258 252 248 246 245 242 239 236 234 233 232 232 232 230 231 232 231
142 199 196 149 223 194 353 287 194 217 260 274 289 280 212 200 126 97 67 70 71 53 39 26 15 13 13 15 13 11 4 356 5 11 352 351 356 356 353 349 347 343 339 339 341 342 343 342 340 336 331 327 326 326 325 322 320 318 315 312 310 309 307 304 303 301 297 294 292 290 284 280 280 284 285 284 285 282 273 265 260 255 252 249 246 244 240 236 234 233 232 232 232 230 230 231 231
127 178 195 184 195 147 340 287 208 164 252 244 283 277 247 206 115 73 62 67 67 56 43 28 14 8 10 17 18 13 358 353 5 358 350 3 3 357 350 344 339 337 339 346 348 346 343 339 336 332 328 326 326 325 324 320 318 317 316 315 313 310 308 307 305 302 299 295 293 290 285 278 277 280 282 281 280 280 276 270 263 258 255 252 248 245 241 236 233 232 231 230 231 230 231 231 230